Location: Kile Knob Observatory
(38.6083°N, 79.4792°W)
Time: 13:24:59
(UTC-04:00)

Tiangong 2 - Pass Details

Date: 01 June 2019
Orbit: 376 x 388 km, 42.8° (Epoch: 16 June)

Event Time Altitude Azimuth Distance (km) Brightness Sun altitude
Rises 22:22:53 0° 274° (W) 2,233 5.6 -17.0°
Reaches altitude 10° 22:26:26 10° 231° (SW) 1,375 3.9 -17.4°
Enters shadow 22:27:02 10° 220° (SW) 1,348 3.7 -17.5°
